Location: downtown San Diego
(32.7310°N, 117.1990°W)
Time: 23:18:16
(UTC-07:00)

Daily predictions for brighter satellites

Satellite Brightness Start Highest point End
(mag) Time Altitude Azimuth Time Altitude Azimuth Time Altitude Azimuth
Meteosat 1 Rocket2 4.0 19:44:51 10° SW 19:48:52 40° SSE 19:54:27 10° E
Cosmos 44 3.2 19:45:33 10° NNW 19:50:00 64° ENE 19:54:37 10° SE
Intercosmos 25 Rocket 3.6 19:47:07 10° NNW 19:50:13 59° W 19:53:47 10° S
CZ-3A R/B 3.1 19:44:17 10° W 19:51:10 24° SSW 19:53:44 10° SSE
CZ-4C R/B 4.1 19:46:12 10° NW 19:53:18 46° WSW 20:00:53 10° S
USA 186 3.5 19:51:10 10° ESE 19:53:35 19° ENE 19:56:01 10° NNE
Cosmos 1441 Rocket 3.6 19:50:08 10° NNW 19:53:51 68° W 19:57:34 10° S
DELTA 2 R/B (1) 3.6 19:50:25 10° WNW 19:56:02 89° NNE 20:01:40 10° ESE
BREEZE M DEB (TANK) 4.5 19:39:29 10° SSW 19:57:01 48° SE 20:01:34 10° ENE
SWAS 4.4 19:53:01 10° NNW 19:57:18 86° ENE 20:01:35 10° SSE
SJ-6B 2.9 19:54:26 10° SSE 19:58:28 84° E 20:02:36 10° N
Meteor 1-11 Rocket 4.1 19:53:26 10° SSE 19:58:59 46° E 20:04:28 10° NNE
SL-16 R/B 2.2 19:53:44 10° SSW 19:59:22 77° ESE 20:05:02 10° NNE
NOSS 2-3 (D) 3.7 19:57:34 10° SSW 20:02:06 83° ESE 20:07:11 10° NNE
USA 267 3.5 19:55:45 10° ESE 20:02:07 57° NE 20:08:30 10° NW
Envisat 4.0 19:57:56 10° SE 20:02:11 28° ENE 20:06:26 10° NNE
Meteor 2-11 Rocket 4.4 20:00:06 10° N 20:06:08 66° E 20:12:08 10° SSE
ALOS 3.7 20:03:31 10° S 20:07:53 41° W 20:12:18 10° NNW
Cosmos 1300 Rocket 4.1 20:04:42 10° SSE 20:08:36 35° E 20:12:32 10° NNE
Okean 1 Rocket 4.2 20:06:27 10° SE 20:09:54 24° E 20:13:23 10° NE
MINOTAUR R/B 4.3 20:07:56 10° NNW 20:10:42 85° WSW 20:13:26 10° SSE
Tiangong 1 3.0 20:09:19 10° NNW 20:11:17 17° NNE 20:13:14 10° ENE
Cosmos 2360 Rocket 2.6 20:13:13 10° S 20:18:25 40° ESE 20:23:37 10° NE
Lacrosse 5 2.3 20:17:26 10° SW 20:22:29 67° NW 20:27:32 10° NNE
COSMOS 2428 4.0 20:22:47 16° ESE 20:24:13 18° E 20:27:58 10° ENE
Okean 1 4.4 20:21:56 10° NNW 20:25:44 45° W 20:29:34 10° SSW
ATLAS 2AS CENTAUR R/B 3.0 20:20:28 10° SSW 20:27:59 88° ESE 20:36:05 10° NNE
Cosmos 1536 2.8 20:24:01 10° S 20:28:02 61° E 20:32:02 10° NNE
Helios 1A 4.5 20:27:54 18° E 20:28:57 20° ENE 20:32:02 10° NNE
Meteor 1-19 Rocket 4.2 20:23:47 10° N 20:29:39 78° E 20:35:23 10° SSE
Cosmos 1939 Rocket 3.6 20:28:40 22° ESE 20:30:26 32° ENE 20:33:56 10° N
Cosmos 1110 Rocket 4.2 20:25:34 10° S 20:30:27 45° ESE 20:35:22 10° NNE
Resurs 01 Rocket 1.6 20:27:00 10° SSE 20:31:27 87° ENE 20:35:55 10° NNW
Lacrosse 5 rocket 2.4 20:28:01 10° WNW 20:31:28 36° SW 20:34:57 11° S
Cosmos 2151 Rocket 4.4 20:31:01 10° SSW 20:35:17 53° W 20:39:35 10° N
CZ-2D R/B 3.7 20:32:19 10° S 20:36:09 64° W 20:39:58 10° NNW
Meteor 1-5 Rocket 4.1 20:31:23 10° S 20:36:36 57° E 20:41:47 10° NNE
Cosmos 2266 Rocket 3.9 20:31:21 10° S 20:37:19 66° E 20:43:17 10° NNE
S3M 4.0 20:32:37 10° N 20:38:57 90° W 20:45:20 10° S
Cosmos 1553 Rocket 4.0 20:33:16 10° N 20:39:24 81° W 20:45:27 10° S
GPS 2-05 Rocket1 2.7 20:36:15 10° WNW 20:39:41 78° NNE 20:40:51 37° E
Abrixas 1.9 20:37:57 10° SW 20:40:32 69° SE 20:40:46 62° E
Cosmos 1331 Rocket 4.1 20:37:26 10° S 20:42:25 53° ESE 20:47:29 10° NNE
SeaSat 1 2.4 20:42:00 10° NNE 20:46:57 88° ESE 20:51:52 10° SSW
Cosmos 1850 Rocket 3.9 20:41:46 10° NNW 20:47:06 83° ENE 20:50:48 20° SSE
Cosmos 1536 Rocket 3.8 20:46:32 10° NNW 20:50:50 66° W 20:55:05 10° S
Meteor 2-4 Rocket 3.7 20:46:37 10° N 20:52:16 85° E 20:57:17 14° S
Cosmos 2315 Rocket 4.4 20:48:06 10° N 20:54:02 43° E 20:56:32 30° SE
ASTRO E2 3.9 21:02:11 10° SW 21:04:48 29° SSW 21:04:48 29° SSW
YAOGAN 6 2.5 21:07:51 67° NE 21:07:51 67° NE 21:11:08 10° N
Cosmos 1932 4.5 21:02:09 10° NNW 21:08:36 67° ENE 21:10:55 40° SE
ARGOS 4.2 21:12:44 28° ENE 21:12:44 28° ENE 21:17:01 10° NNE
Helios 1B rocket 2.3 21:10:36 10° NNE 21:14:44 87° ESE 21:15:35 55° S
Cosmos 1818 3.4 21:11:58 10° SSW 21:17:18 64° ESE 21:22:41 10° NE
FALCON 9 R/B 4.0 21:15:45 10° SSW 21:27:23 21° E 21:34:21 10° ENE
Delta 2 Rocket 3.8 21:16:40 10° W 21:20:40 59° N 21:21:18 52° NE
ERS-1 Rocket 3.2 21:26:50 52° ENE 21:26:50 52° ENE 21:31:29 10° N
Atlas Centaur 2 3.1 21:21:06 10° W 21:29:04 51° SSW 21:30:53 43° SSE
Cosmos 2263 Rocket 2.8 21:23:40 10° NNW 21:29:12 53° WSW 21:31:34 32° SSW
USA 238 DEB 4.1 21:23:24 10° NNW 21:30:17 50° NE 21:31:39 44° E
USA 238 4.1 21:23:30 10° NNW 21:30:23 49° NE 21:31:45 44° E
Cosmos 2278 Rocket 4.4 21:32:58 10° NNE 21:34:14 12° NE 21:34:14 12° NE
Cosmos 1844 Rocket 3.7 21:30:43 10° N 21:35:08 31° NE 21:35:08 31° NE
MetOp-B 4.3 21:39:59 59° NE 21:39:59 59° NE 21:44:51 10° N
Okean 2 4.0 21:36:04 10° NNW 21:39:20 53° NW 21:39:20 53° NW
Cosmos 1238 Rocket 3.9 21:34:58 10° N 21:41:32 64° E 21:41:34 64° E
ATLAS 3B R/B 2.5 21:35:32 10° NNW 21:42:10 68° ENE 21:42:49 64° E
USA 267 4.4 21:42:27 24° SSW 21:45:12 33° SW 21:50:59 10° WNW
Cosmos 2219 Rocket 3.4 21:49:03 30° NE 21:49:03 30° NE 21:51:52 10° NNE
Tiangong 1 4.4 21:44:10 10° WNW 21:44:21 11° WNW 21:44:21 11° WNW
Meteosat 1 Rocket2 4.1 21:44:03 10° W 21:49:01 59° SSW 21:49:01 59° SSW
Cosmos 1025 Rocket 4.1 21:46:56 10° NNW 21:50:44 41° W 21:50:44 41° W
Intelsat 5-1 Rocket 4.1 21:36:17 10° W 21:55:47 52° SSW 21:57:02 49° SSE
H-2A R/B 3.2 21:58:36 31° NNE 21:58:36 31° NNE 22:01:26 10° N
SPOT 5 4.1 22:01:36 33° N 22:01:36 33° N 22:04:14 10° N
Cosmos 2360 Rocket 4.4 21:58:05 10° WSW 22:02:29 23° WNW 22:06:54 10° N
COSMOS 2428 3.5 22:04:27 22° SW 22:08:00 50° WNW 22:13:34 10° N
Aureole 3 Rocket 4.0 22:03:41 10° N 22:11:02 77° WNW 22:11:02 77° WNW
Cosmos 2333 Rocket 3.7 22:24:07 27° NNE 22:24:07 27° NNE 22:26:35 10° NNE
NOSS 3-4 (A) 4.1 22:31:03 51° NNW 22:31:03 51° NNW 22:36:09 10° NNE
NOSS 3-4 (C) 4.1 22:31:17 50° N 22:31:17 50° N 22:36:15 10° NNE
CENTAUR R/B 4.5 22:24:01 10° N 22:30:16 24° NE 22:30:40 24° NE
Cosmos 2237 Rocket 4.4 22:39:08 17° NNE 22:39:08 17° NNE 22:40:17 10° NNE
Terra 4.2 22:39:11 17° N 22:39:11 17° N 22:40:16 10° N
Cosmos 2278 Rocket 4.3 23:14:02 10° NNW 23:16:04 23° NNW 23:16:04 23° NNW
